Regional Weather Roundup
Issued by NWS

Home | Current Version | Previous Version | Text Only | Print | Product List | Glossary On
Versions: 1 2 3 4 5 6 7 8 9 10 11 12 13 14 15 16 17 18 19 20 21 22 23 24 25 26 27 28 29 30 31 32 33 34 35 36 37 38 39 40 41 42 43 44 45 46 47 48 49 50
000
ASUS43 KMKX 250021
RWRWI

WISCONSIN REGIONAL WEATHER ROUNDUP
NATIONAL WEATHER SERVICE MILWAUKEE/SULLIVAN WI
700 PM CDT THU APR 24 2014

NOTE: "FAIR" INDICATES FEW OR NO CLOUDS BELOW 12,000 FEET WITH NO
SIGNIFICANT WEATHER AND/OR OBSTRUCTIONS TO VISIBILITY.

WIZ001-002-006>008-014>016-023>028-250100-
NORTHWEST WISCONSIN

CITY           SKY/WX    TMP DP  RH WIND       PRES   REMARKS
SUPERIOR ARPT  LGT SNOW  32  32 100 NE9G16    29.74F WCI  24
6HR MIN TEMP:  32; 6HR MAX TEMP:  33; 6HR PCP:  0.33;

ASHLAND        MIX PCPN  34  34 100 NE7       29.75F FOG     WCI  28
6HR MIN TEMP:  33; 6HR MAX TEMP:  37; 6HR PCP:  0.59;

HAYWARD        LGT RAIN  37  32  82 E8        29.69F WCI  31
6HR MIN TEMP:  34; 6HR MAX TEMP:  36; 6HR PCP:  0.22;

SIREN          DRIZZLE   39  39  98 CALM      29.68F
6HR MIN TEMP:  39; 6HR MAX TEMP:  40; 6HR PCP:  0.21;

RICE LAKE      DRIZZLE   42  40  95 SE3       29.69F
6HR MIN TEMP:  40; 6HR MAX TEMP:  42; 6HR PCP:  0.17;

LADYSMITH      DRIZZLE   42  40  94 SE9       29.70S
6HR MIN TEMP:  39; 6HR MAX TEMP:  42; 6HR PCP:  0.23;

EAU CLAIRE     CLOUDY    44  43  96 S6        29.66F FOG
6HR MIN TEMP:  43; 6HR MAX TEMP:  44; 6HR PCP:  0.26;

MENOMONIE      CLOUDY    43  43 100 CALM      29.68S FOG
6HR MIN TEMP:  41; 6HR MAX TEMP:  43; 6HR PCP:  0.16;

NEW RICHMOND   CLOUDY    42  42 100 SW3       29.67F FOG
6HR MIN TEMP:  41; 6HR MAX TEMP:  42; 6HR PCP:  0.07;

OSCEOLA        CLOUDY    43  43 100 CALM      29.71S FOG
6HR MIN TEMP:  41; 6HR MAX TEMP:  43; 6HR PCP:  0.07;

$$

WIZ003>005-009-010-017-018-250100-
NORTH CENTRAL WISCONSIN

CITY           SKY/WX    TMP DP  RH WIND       PRES   REMARKS
WOODRUFF       LGT RAIN  37  35  93 SE12G17   29.74S WCI  29
6HR MIN TEMP:  37; 6HR MAX TEMP:  37; 6HR PCP:  0.17;

RHINELANDER    LGT RAIN  35  34  96 SE18G26   29.75F FOG     WCI  24
6HR MIN TEMP:  32; 6HR MAX TEMP:  36; 6HR PCP:  0.19;

EAGLE RIVER    MIX PCPN  33  33 100 SE13G21   29.76F WCI  24
6HR MIN TEMP:  33; 6HR MAX TEMP:  35; 6HR PCP:  0.25;

LAND O LAKES   LGT SNOW  34  33  96 E13G18    29.78F WCI  25
6HR MIN TEMP:  34; 6HR MAX TEMP:  36; 6HR PCP:  0.03;

PHILLIPS       DRIZZLE   38  36  94 SE13G22   29.70S WCI  30
6HR MIN TEMP:  33; 6HR MAX TEMP:  38; 6HR PCP:  0.11;

TOMAHAWK       LGT RAIN  37  36  94 SE6       29.72F WCI  32
6HR MIN TEMP:  34; 6HR MAX TEMP:  37; 6HR PCP:  0.32;

MEDFORD        LGT RAIN  39  38  97 SE15G23   29.68F WCI  30
6HR MIN TEMP:  37; 6HR MAX TEMP:  40; 6HR PCP:  0.17;

MERRILL        LGT RAIN  39  38  98 SE15G21   29.72F WCI  30
6HR MIN TEMP:  37; 6HR MAX TEMP:  40; 6HR PCP:  0.17;

$$

WIZ029-030-035-036-043>047-250100-
CENTRAL WISCONSIN

CITY           SKY/WX    TMP DP  RH WIND       PRES   REMARKS
WAUSAU         LGT RAIN  40  40 100 E16G25    29.71F FOG     WCI  31
6HR MIN TEMP:  38; 6HR MAX TEMP:  41; 6HR PCP:  0.26;

MOSINEE        LGT RAIN  39  39 100 E14G22    29.74S FOG     WCI  31
MARSHFIELD     LGT RAIN  42  39  89 SE16G23   29.68F FOG
6HR MIN TEMP:  41; 6HR MAX TEMP:  42; 6HR PCP:  0.19;

STEVENS POINT  LGT RAIN  39  37  91 E13       29.74S WCI  32
6HR MIN TEMP:  39; 6HR MAX TEMP:  40; 6HR PCP:  0.17;

WAUPACA        LGT RAIN  45  39  81 E8        29.74F
WAUTOMA        LGT RAIN  44  40  86 NE5       29.72F FOG
6HR MIN TEMP:  43; 6HR MAX TEMP:  46; 6HR PCP:  0.11;

WISC RAPIDS    LGT RAIN  43  41  93 E8        29.72S FOG
6HR MIN TEMP:  42; 6HR MAX TEMP:  43; 6HR PCP:  0.29;

CAMP DOUGLAS   DRIZZLE   48  48 100 SE6       29.67F FOG
6HR MIN TEMP:  42; 6HR MAX TEMP:  48; 6HR PCP:  0.21;

$$

WIZ011>013-019>022-031-037>040-048>050-250100-
NORTHEAST WISCONSIN

CITY           SKY/WX    TMP DP  RH WIND       PRES   REMARKS
ANTIGO         LGT RAIN  36  35  96 E20       29.77S WCI  25
6HR MIN TEMP:  33; 6HR MAX TEMP:  38; 6HR PCP:  0.12;

STURGEON BAY   CLOUDY    41  34  75 E12G20    29.80F
6HR MIN TEMP:  37; 6HR MAX TEMP:  41; 6HR PCP:  0.07;

GREEN BAY      LGT RAIN  42  38  85 E8        29.80S
6HR MIN TEMP:  42; 6HR MAX TEMP:  44; 6HR PCP:  0.08;

MANITOWOC      LGT RAIN  42  36  79 E9        29.78F
6HR MIN TEMP:  41; 6HR MAX TEMP:  43; 6HR PCP:  0.02;

APPLETON       DRIZZLE   45  34  65 E8        29.76S
CLINTONVILLE   RAIN      41  37  87 E13G18    29.76F
OSHKOSH        LGT RAIN  47  33  58 SE13      29.71F
6HR MIN TEMP:  44; 6HR MAX TEMP:  47; 6HR PCP:  0.06;

$$

WIZ032>034-041-042-053>061-250100-
SOUTHWEST WISCONSIN

CITY           SKY/WX    TMP DP  RH WIND       PRES   REMARKS
LA CROSSE      FOG       46  45  96 CALM      29.66F VSB 1
6HR MIN TEMP:  44; 6HR MAX TEMP:  48; 6HR PCP:  0.16;

SPARTA         DRIZZLE   45  45  98 E3        29.67F
6HR MIN TEMP:  42; 6HR MAX TEMP:  45; 6HR PCP:  0.13;

VIROQUA        CLOUDY    49  49 100 S6        29.66S
6HR MIN TEMP:  43; 6HR MAX TEMP:  49; 6HR PCP:  0.19;

BOSCOBEL       LGT RAIN  52  49  89 CALM      29.67F FOG
6HR MIN TEMP:  50; 6HR MAX TEMP:  54; 6HR PCP:  0.28;

PRAIRIE DU CHI LGT RAIN  51  49  93 CALM      29.67S
6HR MIN TEMP:  51; 6HR MAX TEMP:  53; 6HR PCP:  0.19;

PLATTEVILLE    CLOUDY    51  49  93 N5        29.68S
6HR MIN TEMP:  51; 6HR MAX TEMP:  55; 6HR PCP:  0.05;

$$

WIZ056-057-062-063-064-067-068-250100-
SOUTH CENTRAL WISCONSIN

CITY           SKY/WX    TMP DP  RH WIND       PRES   REMARKS
BARABOO/DELLS  RAIN      48  46  91 SE3       29.70R
6HR MIN TEMP:  44; 6HR MAX TEMP:  51; 6HR PCP:  0.16;

LONE ROCK      RAIN      50  49  96 E3        29.69F FOG
6HR MIN TEMP:  49; 6HR MAX TEMP:  54; 6HR PCP:  0.20;

WATERTOWN      DRIZZLE   51  35  54 SE9G20    29.69F
6HR MIN TEMP:  51; 6HR MAX TEMP:  54; 6HR PCP:  0.01;

MADISON        LGT RAIN  50  46  86 E9        29.66F
6HR MIN TEMP:  50; 6HR MAX TEMP:  57; 6HR PCP:  0.11;

MIDDLETON      CLOUDY    51  49  92 E7        29.66F
6HR MIN TEMP:  51; 6HR MAX TEMP:  55; 6HR PCP:  0.09;

MONROE         RAIN      51  51 100 SE6       29.66F
6HR MIN TEMP:  50; 6HR MAX TEMP:  59; 6HR PCP:  0.13;

JANESVILLE     CLOUDY    59  39  47 SE13G18   29.67F
$$

WIZ051-052-058>065-066-070>072-250100-
SOUTHEAST WISCONSIN

CITY           SKY/WX    TMP DP  RH WIND       PRES   REMARKS
MILWAUKEE      LGT RAIN  46  33  60 SE12      29.77S
6HR MIN TEMP:  46; 6HR MAX TEMP:  52; 6HR PCP: TRACE;

WAUKESHA       CLOUDY    50  30  46 E16       29.75F
MILWAUKEE/TIMM CLOUDY    48  30  49 SE13G18   29.77S
RACINE         LGT RAIN  47  32  56 SE15G22   29.77F
6HR MIN TEMP:  46; 6HR MAX TEMP:  53; 6HR PCP: TRACE;

BURLINGTON     CLOUDY    53  32  44 MISG      29.72F
KENOSHA        LGT RAIN  48  33  56 E13       29.74F
6HR MIN TEMP:  48; 6HR MAX TEMP:  58; 6HR PCP: TRACE;

FOND DU LAC    LGT RAIN  48  32  53 SE16G24   29.72F
6HR MIN TEMP:  45; 6HR MAX TEMP:  48; 6HR PCP:  0.11;

SHEBOYGAN      CLOUDY    49  27  42 SE15G29   29.77F
6HR MIN TEMP:  43; 6HR MAX TEMP:  49; 6HR PCP:  0.05;

WEST BEND      LGT RAIN  45  32  61 SE10      29.76F
JUNEAU         LGT RAIN  48  31  51 E16       29.70F
6HR MIN TEMP:  47; 6HR MAX TEMP:  50;

$$

LSZ147-162-250100-
LAKE SUPERIOR

STATION/POSITION TIME  TEMP    WIND        PRES    WAVE
                       AIR SEA DIR/SP/G            HT/PER
                 (UTC) (F)     (DEG/KT/KT) (MB)    (FT/S)
DEVILS ISLAND    0000   33      90/ 23/ 26 1009.3F
PORT WING        2300   36      70/  4/  6 1007.5F
SAXON HARBOR     2300           CALM  /  5 1007.8F
$$

LMZ867-665-643>646-250100-
LAKE MICHIGAN

STATION/POSITION TIME  TEMP    WIND        PRES    WAVE
                       AIR SEA DIR/SP/G            HT/PER
                 (UTC) (F)     (DEG/KT/KT) (MB)    (FT/S)
NORTHPORT PIER   2320   38      90/ 13/ 17 1011.9F
SISTER BAY       2323   40     100/ 13/ 22   N/A
KEWAUNEE LAKESHO 0000   38      80/ 11/ 14 1009.9F
SHEBOYGAN LAKESH 0000   44     130/ 20/ 21 1008.8F
PORT WASHINGTON  2300   42     100/ 10/ 14 1009.1F
MILWAUKEE LAKESH 0000   43     170/  5/  7   N/A
KENOSHA   LAKESH 0000   44     120/ 16/ 18   N/A
$$

TC  - TEMPERATURE IN CELSIUS
VSB - VISIBILITY IN STATUTE MILES
WCI - WIND CHILL INDEX
HX  - HEAT INDEX




USA.gov is the U.S. government's official web portal to all federal, state and local government web resources and services.